Miscellaneous Local Product
Issued by NWS Hastings, NE

Home | Current Version | Previous Version | Graphics & Text | Print | Product List | Glossary On
Versions: 1 2 3 4 5 6 7 8 9 10 11 12 13 14 15 16 17 18 19 20 21 22 23 24 25 26 27 28 29 30 31 32 33 34 35 36 37 38 39 40 41 42 43 44 45 46 47 48 49 50
000
AXUS43 KGID 020402
MISGRI

GID CWA HOURLY WEATHER ROUNDUP
NATIONAL WEATHER SERVICE HASTINGS NE
1000 PM CST SUN MAR 01 2015

NOTE: "FAIR" INDICATES FEW OR NO CLOUDS BELOW 12,000 FEET WITH NO
SIGNIFICANT WEATHER AND/OR OBSTRUCTIONS TO VISIBILITY.

...SOUTH CENTRAL NEBRASKA...

CITY           SKY/WX    TMP DP  RH WIND       PRES   REMARKS
GRAND ISLAND   FAIR      25  12  58 CALM      30.42R
HASTINGS       PTCLDY    23  13  65 CALM      30.41R
KEARNEY        PTCLDY    25   9  50 CALM      30.40R
ORD            CLEAR     23   7  50 CALM      30.39R
YORK           PTCLDY    27  14  59 N6        30.42R WCI  20
AURORA         PTCLDY    24  11  59 NE5       30.41R WCI  18
LEXINGTON      PTCLDY    25  11  54 CALM      30.39R
HOLDREGE       MOCLDY    27  11  51 CALM      30.38R
HEBRON         MOCLDY    28  18  67 CALM      30.41R

...NEBRASKA PANHANDLE...

CITY           SKY/WX    TMP DP  RH WIND       PRES   REMARKS
CHADRON        MOCLDY    20  10  65 NE6       30.30S WCI  12
ALLIANCE       PTCLDY    20  13  74 S7        30.27S WCI  11
SCOTTSBLUFF    CLOUDY    24  11  57 SE6       30.28R WCI  17
SIDNEY         MOCLDY    22  17  81 SW7       30.28S WCI  13

...WESTERN AND NORTH CENTRAL NEBRASKA...

CITY           SKY/WX    TMP DP  RH WIND       PRES   REMARKS
VALENTINE      PTCLDY    16   9  74 CALM      30.36S
AINSWORTH      PTCLDY    22   9  57 CALM      30.37R
ONEILL         PTCLDY    23   8  51 N6        30.40R WCI  16
BROKEN BOW     PTCLDY    22   9  57 CALM      30.38R
IMPERIAL         N/A     26  14  60 CALM      30.33F
NORTH PLATTE   PTCLDY    18   8  65 E3        30.37R
MCCOOK         CLOUDY    32  12  43 S3        30.36S

...EASTERN NEBRASKA...

CITY           SKY/WX    TMP DP  RH WIND       PRES   REMARKS
NORFOLK        PTCLDY    25   8  48 CALM      30.43R
SO SIOUX CITY  CLEAR     23  14  68 N7        30.45R WCI  15
TEKAMAH        PTCLDY    23  14  68 N9        30.45R WCI  13
COLUMBUS       CLEAR     21   7  53 NW5       30.45R WCI  15
ALBION         PTCLDY    20   8  59 NW5       30.41R WCI  13
OMAHA EPPLEY   PTCLDY    25  17  72 CALM      30.44R
OFFUTT AFB     CLEAR     23  18  81 S2        30.44R
MILLARD        CLEAR     25  17  72 CALM      30.43R
LINCOLN        PTCLDY    20  14  77 N6        30.45R WCI  12
NEBRASKA CITY  MOCLDY    30  12  48 SW5       30.43R WCI  25
BEATRICE       MOCLDY    27  19  70 CALM      30.42S
FALLS CITY     CLOUDY    28  20  71 S3        30.44R

...NORTHERN KANSAS...

CITY           SKY/WX    TMP DP  RH WIND       PRES   REMARKS
GOODLAND       CLOUDY    30  22  72 S6        30.34R WCI  24
HILL CITY      CLOUDY    31  20  63 SW5       30.41R WCI  26
NORTON         PTCLDY    32  12  43 S5        30.38  WCI  27
PHILLIPSBURG   PTCLDY    34  21  60 CALM      30.41R
SMITH CENTER   CLEAR     28  19  69 SE6       30.42R WCI  22
BELOIT         PTCLDY    27  21  80 CALM      30.44R
HAYS           PTCLDY    25  12  58 W3        30.41S
RUSSELL        CLEAR     25  19  78 SW5       30.41R WCI  19
CONCORDIA      PTCLDY    29  21  72 SW8       30.43R WCI  21
SALINA         PTCLDY    25  20  81 S5        30.45S WCI  19
TOPEKA         CLEAR     23  19  85 CALM      30.47R



USA.gov is the U.S. government's official web portal to all federal, state and local government web resources and services.